GFSNGP_con_3kmhel_141.txt.gz
Helicity
107 118 113 92 96 99 107 127 157 156 133 69 98 161 157 200 190 135 116 97 100 92 72 77 80 68 51 51 49 35 28 35 37 22 21 -5 17 -6 6 38 79 169 195 222
119 85 68 84 131 126 134 129 115 111 -8 81 99 161 190 201 143 119 117 112 104 94 78 90 81 70 55 55 56 47 47 38 30 22 29 44 14 25 61 98 111 58 55 117
100 86 79 78 49 22 91 97 85 68 44 92 80 81 99 129 115 103 107 115 109 101 82 84 76 66 64 51 44 54 51 48 44 35 25 29 10 15 39 60 48 71 99 93
115 120 126 104 79 100 87 30 49 36 94 80 74 94 104 105 104 109 117 122 114 95 80 78 66 65 51 47 48 56 49 52 50 42 27 21 16 8 -15 -27 1 39 70 68
180 129 116 104 14 63 30 45 25 36 103 125 142 160 125 105 96 110 119 119 107 94 86 83 74 62 60 57 45 47 40 38 36 12 11 8 31 25 -2 -17 -19 -9 -12 47
198 175 203 144 90 91 41 -42 35 31 52 89 99 74 80 94 156 176 157 134 116 97 95 93 70 55 63 61 52 43 26 17 -1 -13 -13 -10 -11 -14 -24 -14 -15 -18 17 18
132 200 183 112 119 112 58 54 52 28 24 67 57 77 87 134 174 174 170 147 129 110 109 102 66 47 61 55 50 16 12 7 -4 -23 -33 -33 -42 -34 -30 -23 -13 -4 9 34
150 181 37 104 111 77 81 37 11 12 31 56 107 140 141 142 190 191 182 145 120 117 111 85 54 51 45 45 19 12 5 1 -11 -21 -40 -52 -43 -50 -38 -32 -22 -12 -2 -6
146 136 94 107 102 101 109 44 -2 15 65 96 163 171 206 218 205 190 158 125 103 107 108 81 54 48 56 26 12 11 10 5 -3 -21 -34 -34 -32 -32 -40 -39 -55 -63 -59 -51
110 108 136 120 86 157 211 103 94 97 110 143 171 210 242 233 242 198 143 116 107 109 119 114 72 52 29 14 20 15 10 -1 -11 -16 -48 -48 -59 -60 -50 -45 -45 -48 -49 -51
47 110 130 99 40 128 124 149 170 164 129 136 187 209 245 254 216 167 132 110 100 101 101 95 55 21 32 23 11 18 13 5 -6 -30 -43 -57 -53 -56 -69 -59 -47 -63 -58 -48
28 51 140 87 84 109 143 143 156 160 158 157 185 219 230 220 159 128 112 95 95 103 87 39 26 36 38 27 16 11 11 -1 -17 -27 -37 -54 -66 -64 -23 -24 3 15 15 -16
39 133 133 83 71 106 142 167 151 133 143 179 185 205 193 181 129 109 94 95 89 73 44 29 42 46 35 29 29 23 17 3 -14 -20 -23 -21 -24 -24 -28 -29 -3 24 36 31
185 210 119 116 84 118 143 156 130 130 139 162 170 149 156 143 124 96 80 79 56 45 44 47 50 49 28 21 28 20 7 -3 -19 -26 -29 -33 -32 -26 -21 -8 10 25 35 44
162 171 131 97 154 183 182 168 148 138 163 153 126 141 138 134 105 92 88 80 74 64 64 57 51 44 30 28 35 30 16 9 0 -5 -10 -12 -9 -7 -6 0 11 19 26 42
200 149 150 163 171 181 165 137 147 129 126 125 124 112 102 95 97 86 68 69 77 66 56 55 55 45 40 37 36 32 29 32 15 8 13 20 23 28 33 36 33 32 41 50
181 118 158 166 168 176 149 136 126 104 110 116 129 139 135 139 131 116 96 93 99 87 62 58 65 52 47 42 45 43 33 29 27 28 38 41 42 47 46 47 50 56 64 76
95 103 123 136 187 192 131 124 105 90 92 105 143 149 151 146 122 117 126 133 133 98 71 72 75 78 77 65 62 58 52 48 55 61 63 65 62 65 62 65 78 82 74 70
135 116 102 124 128 120 115 100 85 98 118 144 150 122 121 126 143 143 146 142 118 99 76 75 96 104 94 89 82 72 68 68 78 88 85 79 73 83 102 108 99 90 81 77
167 129 136 138 118 106 101 98 113 108 112 147 162 155 137 136 146 151 140 124 97 99 98 108 109 111 108 110 97 86 86 92 99 96 89 81 104 117 109 101 89 85 83 82
120 122 125 108 73 57 85 96 113 112 116 136 146 142 155 154 162 155 153 147 128 126 131 126 119 114 110 99 96 100 104 108 101 96 106 110 109 104 90 90 87 87 84 82
79 70 55 59 63 78 80 111 131 157 146 143 151 185 191 157 140 132 118 126 135 142 140 138 132 131 116 111 107 105 111 112 101 103 114 114 101 95 95 91 87 82 79 76
39 46 57 65 79 94 107 107 118 135 137 137 155 171 159 138 126 135 139 144 155 152 155 151 148 145 138 117 113 124 119 111 117 121 110 98 93 92 89 85 78 75 73 73
52 59 68 77 109 116 121 102 114 121 141 152 170 177 176 169 150 141 157 171 182 172 163 150 149 148 132 120 121 114 114 115 113 102 100 97 95 85 82 78 75 73 73 69
75 87 87 91 85 85 119 132 151 159 170 171 168 156 144 135 130 130 149 171 186 185 173 162 161 151 130 117 109 113 111 111 109 103 103 99 89 80 76 74 71 69 67 61
83 83 71 70 84 108 122 129 149 166 187 205 188 168 169 166 167 189 192 195 184 180 163 150 141 130 117 106 107 113 111 112 108 104 94 86 78 71 71 69 65 60 54 53
94 93 97 103 102 111 116 130 155 156 159 181 204 178 179 182 189 202 202 188 180 177 164 145 130 119 109 111 110 112 112 111 106 96 84 74 68 66 65 61 56 52 54 57

GFSNGP_con_3kmhel_144.txt.gz
Helicity
36 36 45 57 71 46 66 75 87 111 68 42 16 16 44 112 246 192 158 99 82 91 87 77 70 72 63 65 66 56 52 43 43 30 22 27 35 34 17 24 3 27 105 152
91 39 56 58 84 59 36 22 38 41 37 15 23 91 82 119 147 145 116 109 92 93 88 84 83 84 75 77 76 62 63 46 39 31 20 16 13 24 44 25 55 70 72 62
42 71 72 73 49 -15 19 66 66 81 44 27 37 49 60 75 85 108 116 107 104 99 89 92 93 87 87 83 78 72 66 51 47 42 33 24 16 16 39 40 33 48 53 81
85 78 83 169 116 42 45 8 2 23 27 31 88 109 107 93 100 110 117 118 113 95 90 97 94 92 81 82 76 76 71 58 57 55 47 30 20 27 33 30 39 29 41 68
102 68 67 52 47 58 48 39 63 23 28 44 69 86 102 93 97 104 123 139 112 97 91 97 97 87 86 83 70 67 59 46 53 56 47 40 28 17 9 9 12 15 17 44
75 95 86 129 120 101 78 42 123 78 78 62 47 43 90 88 117 145 172 150 121 114 103 94 88 80 80 67 59 55 39 37 30 27 22 22 20 1 -12 -19 -24 -34 1 39
65 89 132 108 129 85 66 89 82 49 30 18 32 83 86 113 149 163 161 146 135 107 100 99 87 70 69 54 47 21 26 28 25 10 7 5 -2 3 -4 -7 -9 -3 -11 -14
100 132 113 132 111 60 91 109 60 21 21 22 53 83 140 161 153 169 163 144 128 112 101 97 80 67 75 52 32 31 29 32 22 10 -1 0 -2 -4 4 5 5 -1 -7 -15
125 109 129 113 58 82 105 44 30 6 30 14 93 141 204 218 184 163 157 145 112 105 102 89 73 58 79 64 28 22 30 26 19 11 5 -5 -7 -14 -15 -10 -11 -5 -3 4
64 56 28 10 50 67 72 38 31 81 48 91 122 158 199 231 210 178 162 138 116 101 96 91 80 79 73 29 22 27 25 22 14 20 12 9 -14 -31 -29 -24 -31 -29 -20 -9
39 24 20 22 35 60 44 55 95 86 103 120 125 153 193 220 199 171 154 131 101 100 92 92 93 78 29 24 27 28 22 16 13 8 6 0 0 -20 -39 -34 -28 -40 -43 -37
60 34 38 12 55 80 104 82 56 83 132 121 118 147 180 194 166 150 137 114 105 91 83 83 51 38 41 40 28 23 21 19 12 9 5 -1 -15 -13 11 -14 -11 -6 -5 -7
43 28 49 99 95 73 51 63 73 104 120 112 127 163 162 157 143 143 123 102 86 82 80 55 44 54 57 52 43 38 32 24 17 8 11 6 5 5 -5 -6 -7 17 23 33
23 72 62 86 89 85 104 110 131 137 115 121 140 151 152 141 151 121 113 99 93 86 72 56 53 64 60 57 51 43 40 35 21 20 12 11 17 17 13 11 11 15 44 37
28 121 44 151 112 121 136 158 148 128 135 138 134 141 138 142 130 130 115 101 88 80 80 72 75 73 58 49 42 37 32 36 21 20 25 18 17 21 31 34 37 35 36 47
55 118 107 119 104 138 155 134 114 123 129 134 122 115 113 115 122 118 103 86 79 74 79 84 77 77 59 46 40 41 41 48 33 36 41 42 44 48 50 47 42 36 40 53
174 151 97 94 101 135 120 102 102 118 119 120 131 136 130 129 138 134 107 93 114 117 110 95 88 72 64 52 41 53 53 61 56 60 65 62 66 67 62 58 57 54 57 73
125 119 92 57 78 121 123 118 109 112 111 127 138 140 135 124 135 134 129 147 154 141 111 104 96 90 85 80 74 79 77 79 78 75 76 87 81 79 77 73 75 71 61 59
151 141 81 76 97 107 121 117 102 110 115 123 124 111 113 136 166 167 151 142 139 137 113 100 98 94 99 103 88 91 90 92 96 94 96 93 92 95 93 82 78 71 73 79
158 141 122 123 116 124 135 109 116 97 85 106 135 149 151 162 173 176 148 121 112 122 118 109 100 111 115 115 97 103 106 108 103 105 124 113 112 109 104 98 85 93 97 93
181 158 145 128 124 100 68 73 94 100 104 111 133 145 161 176 175 171 162 137 144 139 135 123 113 114 114 106 107 117 115 111 115 129 124 123 111 106 102 93 91 88 79 69
110 107 100 78 68 64 63 83 106 131 132 139 151 170 180 175 175 147 143 137 147 143 127 124 131 139 132 114 122 120 118 130 134 123 127 121 116 105 100 97 91 81 70 66
72 55 45 46 59 82 99 101 108 116 125 127 141 153 157 165 163 157 159 151 136 143 151 156 159 160 149 135 126 124 135 132 134 138 132 125 117 111 99 90 80 68 67 65
60 66 75 78 91 97 102 95 108 118 131 139 147 161 178 178 157 137 146 152 178 172 175 168 172 165 137 125 126 131 126 133 134 129 131 106 105 90 83 77 70 66 66 63
70 74 73 73 71 73 94 108 126 137 146 153 168 169 160 150 137 151 170 182 197 194 197 195 178 150 134 128 126 125 133 134 136 122 114 106 93 85 79 76 67 68 58 57
66 62 62 62 70 81 91 98 111 128 150 171 175 177 183 176 186 179 182 188 195 196 178 152 144 135 131 124 121 129 130 131 113 116 102 92 89 77 75 69 61 56 59 62
84 82 88 97 94 93 92 99 116 126 132 149 173 172 176 183 187 183 193 193 194 189 170 150 139 138 125 118 127 128 122 125 121 107 96 89 80 75 70 59 56 59 62 62

GFSNGP_con_3kmhel_147.txt.gz
Helicity
68 68 67 62 64 78 51 43 69 59 56 31 34 39 55 131 152 242 172 151 133 101 91 74 68 78 75 72 64 56 66 67 58 11 -5 14 24 34 38 46 50 39 44 47
104 54 45 47 74 44 25 14 27 36 54 33 26 143 99 97 141 111 108 98 90 93 97 84 86 97 89 83 72 72 77 75 70 58 50 47 42 29 39 34 54 72 81 69
67 47 79 79 97 61 6 26 34 67 44 59 50 54 68 111 80 92 78 79 107 109 121 110 102 95 95 82 81 83 82 83 73 61 60 56 48 43 40 44 29 51 76 81
84 76 73 69 74 38 48 29 16 52 130 44 74 87 102 111 111 97 107 112 139 135 137 122 110 108 94 88 87 88 90 83 67 58 60 52 45 45 40 29 39 38 50 61
69 62 64 57 46 46 97 37 15 103 91 133 72 65 56 98 99 103 122 119 116 133 130 114 113 104 110 101 87 84 88 80 61 57 53 48 43 37 26 19 18 25 39 69
85 72 78 51 59 101 79 48 180 77 108 106 81 55 113 53 86 147 130 126 138 125 106 113 102 99 104 99 82 80 78 55 45 50 51 39 29 16 6 -1 -3 -10 1 16
62 80 77 25 108 121 82 122 86 84 100 68 52 131 129 87 125 124 126 146 144 122 114 122 104 90 89 81 74 67 42 39 50 40 26 22 17 8 4 -6 -23 -19 -11 -12
67 50 34 79 163 102 98 58 59 64 48 54 67 84 78 143 154 138 136 153 130 138 139 115 93 80 86 86 72 50 58 59 53 45 31 21 23 13 11 0 -24 -37 -35 -16
52 74 112 58 63 48 35 43 70 80 55 48 106 99 150 211 167 164 153 139 134 133 125 106 90 76 94 81 75 82 52 49 50 41 41 28 28 31 25 17 -1 -21 -28 -37
92 109 74 69 43 27 41 80 75 64 51 80 95 122 182 166 161 169 168 146 135 130 108 107 101 87 92 92 76 46 47 45 38 37 20 31 25 28 27 19 7 -3 -9 -15
28 12 13 25 51 93 82 94 69 58 86 68 121 138 144 130 162 171 168 145 125 113 113 112 100 103 94 73 47 47 49 44 38 27 22 22 38 28 22 26 15 0 -10 -16
45 26 41 48 69 65 79 57 85 76 124 69 94 129 132 131 150 159 150 132 118 121 120 117 104 95 75 54 46 43 48 46 38 27 22 22 12 29 49 24 22 18 40 24
7 25 32 64 56 84 91 94 86 100 83 74 97 121 113 138 141 144 144 120 114 123 120 102 106 91 78 73 69 74 67 51 40 32 31 27 25 18 12 28 29 37 31 51
-3 16 26 27 68 88 94 137 118 111 94 97 127 135 156 146 149 138 126 112 123 127 119 112 108 96 85 89 87 83 70 60 46 45 41 35 31 32 33 36 34 39 66 61
-12 -12 -1 18 130 149 124 138 115 110 109 128 151 151 139 130 132 134 133 148 144 142 140 120 97 87 77 78 79 73 56 67 49 51 52 35 38 47 55 55 56 56 54 70
16 23 48 97 88 110 116 109 100 114 137 123 144 127 113 139 140 148 144 126 121 111 105 121 104 101 94 90 80 68 62 74 59 56 56 57 62 65 68 69 65 73 72 83
31 44 80 85 103 117 103 89 99 123 118 134 148 129 173 206 209 191 183 165 153 154 140 125 126 120 112 94 78 86 73 78 62 58 81 81 81 89 88 84 79 78 80 98
22 46 102 98 121 124 109 106 143 162 147 163 210 238 230 186 143 176 176 171 170 151 133 139 134 128 114 103 88 98 87 86 86 93 99 101 101 109 106 98 102 96 92 91
43 131 145 137 152 111 123 142 175 163 173 194 190 188 166 149 166 165 175 168 159 152 148 143 145 126 121 120 96 103 102 103 112 119 112 101 98 112 106 106 108 100 99 98
175 177 142 153 143 137 191 234 238 202 174 149 150 151 147 162 173 178 165 158 135 131 149 136 117 137 136 123 105 116 116 121 119 122 135 122 132 109 107 102 104 115 114 110
242 219 227 230 234 224 213 191 168 116 98 112 126 139 159 180 189 189 181 187 192 173 159 161 157 146 135 126 109 128 123 120 127 132 125 127 112 115 123 126 127 120 115 102
169 176 171 169 175 161 125 103 100 112 115 118 146 180 207 194 188 165 156 179 159 193 171 148 147 156 152 125 136 126 131 137 138 136 135 126 129 125 126 126 123 114 104 97
100 105 119 118 95 94 98 98 99 103 119 136 159 170 156 159 168 194 203 223 185 152 167 199 218 191 159 149 140 138 140 137 138 135 130 134 129 133 127 122 119 97 95 88
84 64 67 71 79 90 103 100 108 117 128 136 142 141 167 172 174 167 199 215 194 184 246 209 191 178 154 148 139 138 125 130 125 125 137 112 133 126 121 113 102 92 85 79
60 65 67 63 69 78 95 102 120 132 139 145 154 162 156 162 166 248 238 229 253 249 225 206 189 169 152 138 132 126 129 131 143 128 135 137 127 122 109 105 91 88 75 66
59 62 61 57 66 72 85 88 100 111 140 153 160 172 198 218 254 236 239 206 197 221 198 180 165 148 146 137 135 125 125 141 118 140 137 125 124 105 101 93 80 74 75 77
85 81 79 81 76 82 78 82 103 113 128 134 161 191 237 237 221 200 197 201 200 206 195 182 159 142 138 124 125 123 126 146 152 139 125 118 106 99 93 81 75 76 74 73

GFSNGP_con_3kmhel_150.txt.gz
Helicity
126 127 128 152 129 151 103 82 107 75 92 48 39 33 83 213 223 195 131 168 141 165 122 79 59 67 87 88 75 85 74 53 12 6 -12 -1 -14 -23 -9 5 20 17 21 56
149 95 73 70 86 72 75 58 60 56 63 42 41 138 187 146 196 172 144 148 78 115 70 62 99 106 110 96 92 96 86 73 66 66 56 35 26 22 13 7 15 27 18 32
85 49 77 127 114 92 48 34 46 57 27 126 133 195 206 87 102 146 200 180 112 68 101 93 131 124 115 104 108 113 93 86 81 72 56 57 56 44 39 22 19 37 45 29
105 131 131 104 23 22 16 38 7 19 36 122 90 109 114 108 148 187 116 96 187 181 151 137 136 139 112 124 116 123 111 95 85 69 59 56 63 60 40 37 23 25 31 35
130 121 98 69 36 43 44 36 59 111 141 180 149 59 137 111 118 149 151 206 161 187 199 157 143 130 160 159 120 104 95 84 85 70 55 60 62 58 46 29 21 7 -7 -6
167 128 123 44 29 133 155 80 166 204 158 149 92 66 92 142 98 102 201 186 143 132 137 130 122 132 132 128 119 92 73 72 38 42 36 46 46 44 33 26 17 -5 -20 -40
116 113 103 48 32 101 65 118 122 67 92 119 84 103 150 111 175 153 156 165 140 104 99 113 120 124 110 113 87 67 80 56 42 43 21 30 24 24 15 11 11 6 -3 -25
77 66 67 17 101 116 129 102 81 84 99 116 116 166 172 153 147 123 181 194 149 124 159 154 110 96 115 113 83 71 60 72 77 54 47 39 44 43 29 13 4 1 11 5
99 102 144 193 127 234 110 71 93 124 156 126 106 147 131 188 162 169 196 173 145 166 161 130 116 118 134 110 78 69 88 77 60 51 55 50 47 46 33 40 13 15 7 3
69 71 80 62 52 59 79 134 145 170 119 74 142 195 198 216 158 185 195 169 157 182 145 139 159 159 141 96 77 90 72 61 52 49 39 51 48 31 19 15 13 7 6 2
75 60 43 73 119 138 153 125 82 132 106 71 154 194 184 134 129 146 184 207 182 168 145 142 132 158 117 91 88 83 67 61 55 49 46 41 42 18 25 2 5 7 -7 -2
68 63 69 63 81 74 78 60 66 133 125 102 105 218 171 103 108 132 199 191 161 156 153 151 150 135 117 99 86 67 68 69 62 50 47 41 34 33 53 40 35 41 47 14
42 63 80 65 34 34 50 40 99 112 116 108 123 156 169 137 123 135 185 163 141 171 162 167 163 161 152 131 119 124 99 79 59 61 56 45 38 37 32 27 38 41 57 68
25 35 55 26 38 34 89 100 163 139 134 128 125 161 192 162 170 151 187 149 152 181 191 186 228 212 156 133 117 107 87 91 78 70 70 63 55 50 49 46 51 46 72 101
-0 -7 18 24 23 52 144 167 177 162 168 148 197 257 287 255 181 202 216 187 229 240 227 268 194 132 103 94 92 90 89 100 79 72 77 54 58 67 67 69 76 88 96 90
13 15 12 21 29 90 178 161 167 164 182 176 248 288 238 177 189 199 197 210 191 197 187 181 139 118 113 118 109 93 95 89 83 81 86 86 80 78 86 93 93 105 113 82
24 31 42 32 104 125 139 192 203 195 208 199 271 245 178 225 257 287 304 253 253 261 218 184 173 158 136 114 94 118 104 92 89 78 106 101 97 108 104 110 111 120 118 55
3 1 42 38 118 146 214 279 255 224 217 257 279 242 267 275 284 292 287 282 268 227 177 172 170 166 141 131 123 140 121 118 109 106 107 122 105 117 122 127 142 131 121 118
35 41 33 143 168 194 290 285 236 277 333 327 301 272 249 263 250 252 242 229 213 214 191 184 166 153 153 153 136 135 134 121 112 118 122 96 93 133 140 150 135 124 127 118
65 154 289 345 328 303 333 321 327 325 295 279 276 259 243 216 206 204 195 188 162 162 199 175 155 158 169 170 146 150 139 145 137 144 144 146 168 139 155 138 128 132 128 123
244 352 379 359 327 309 313 264 295 256 215 204 182 176 189 188 189 199 193 191 203 252 200 165 161 208 159 162 155 168 148 153 150 162 160 156 144 148 149 148 140 131 132 124
204 228 233 246 245 243 226 219 201 180 149 127 128 161 202 185 181 153 119 186 188 219 205 171 194 187 190 152 175 153 144 152 165 162 161 149 151 154 158 151 149 147 125 125
139 151 168 175 181 186 169 134 109 110 106 117 153 171 164 145 156 174 206 237 217 205 169 269 267 265 181 182 175 166 166 154 149 152 156 169 155 167 151 154 148 123 127 125
113 112 131 137 131 126 113 95 100 100 116 132 128 129 144 145 136 146 232 256 215 230 296 251 236 223 181 173 156 155 132 141 137 143 181 134 150 155 148 141 140 129 124 120
108 93 75 57 57 67 82 91 106 111 108 107 115 119 127 125 157 262 307 311 347 313 272 245 237 192 166 157 149 135 141 178 204 172 165 170 161 156 141 149 139 132 104 87
62 54 46 39 68 70 83 86 100 102 131 144 151 156 184 252 314 341 326 316 315 277 213 206 195 164 180 175 162 149 161 163 142 170 181 147 159 133 143 147 121 104 105 102
71 69 74 94 70 74 67 77 102 118 131 144 169 187 259 289 297 301 274 264 245 223 183 181 178 165 182 158 167 154 149 194 187 177 155 155 143 140 147 133 116 108 90 79

GFSNGP_con_3kmhel_153.txt.gz
Helicity
201 182 176 227 171 180 117 91 142 122 135 122 101 51 75 81 135 161 234 241 203 178 178 120 98 78 93 119 109 72 53 31 -4 -12 8 -13 -31 -51 -44 -38 0 -25 10 49
230 171 130 76 90 102 111 112 106 80 101 88 116 173 166 102 119 138 128 106 132 132 128 106 49 60 161 144 135 123 115 87 78 65 76 59 29 -2 -13 -22 -19 11 1 24
175 104 100 113 118 104 101 113 115 109 118 130 158 133 97 128 105 135 131 103 155 166 112 85 121 175 165 160 182 181 129 111 85 78 80 80 57 27 12 9 -12 4 10 21
160 157 163 142 87 74 69 72 76 54 88 49 53 120 160 77 128 182 255 244 192 138 134 161 191 190 175 168 158 168 163 123 118 93 83 66 69 48 36 13 6 0 0 9
160 163 127 88 105 73 75 105 31 163 195 162 182 176 131 106 123 140 183 195 200 226 217 199 190 207 250 178 128 126 106 105 83 74 70 57 59 52 48 36 14 -15 -19 -6
220 221 164 80 67 89 109 173 186 196 178 176 150 103 74 84 165 286 318 284 268 272 265 225 194 194 182 166 118 97 70 42 42 48 48 59 52 51 43 35 16 -6 1 -14
242 243 234 171 52 51 165 93 121 92 109 146 117 93 84 156 190 230 207 225 178 184 176 144 175 160 139 123 89 60 41 30 29 19 12 41 51 48 55 45 41 25 -1 -17
157 169 98 105 86 189 140 71 86 125 146 160 132 123 163 230 235 237 258 217 145 120 101 113 127 123 98 72 38 60 64 57 65 74 43 57 70 69 84 68 63 43 27 14
137 118 58 58 122 130 130 139 130 162 130 137 137 161 234 262 201 220 271 205 145 193 231 166 103 138 139 96 87 91 84 74 73 76 88 63 49 47 39 41 31 30 24 17
151 128 129 57 41 69 99 122 104 129 135 130 102 180 176 201 158 237 289 202 236 281 245 205 203 226 183 146 114 111 93 81 61 62 65 54 28 24 14 21 23 19 11 6
123 131 162 126 175 187 191 201 195 142 124 97 151 225 255 208 194 258 238 222 269 273 235 217 240 235 198 156 141 141 129 105 84 76 54 56 52 29 28 11 18 3 -2 -4
101 92 90 94 112 93 91 89 74 98 126 153 191 255 261 219 172 208 280 299 279 260 233 200 219 201 156 138 161 165 133 102 99 82 81 54 48 58 61 33 47 50 48 11
69 71 94 89 79 97 109 96 88 115 143 130 180 285 267 196 131 225 296 291 252 242 244 249 243 242 222 214 207 181 132 94 105 112 106 98 88 56 39 34 53 61 91 87
56 77 99 130 127 166 128 124 162 154 162 141 211 333 328 219 188 254 267 226 229 276 326 339 315 265 202 192 195 182 163 148 111 103 100 103 106 97 85 61 43 66 146 114
54 57 69 62 39 38 68 160 167 221 189 182 261 336 348 290 244 239 245 226 267 348 336 322 294 202 152 142 167 150 139 125 112 91 89 95 97 112 114 119 126 129 107 71
41 59 102 120 97 97 166 231 275 214 186 267 335 354 359 342 302 276 293 311 363 321 276 263 210 143 131 143 155 156 129 111 124 111 113 138 138 139 135 135 147 119 106 70
92 83 97 92 91 130 105 195 235 207 230 313 317 344 370 371 359 339 318 301 304 284 242 219 170 161 161 140 139 122 117 110 113 123 134 137 160 151 154 164 160 122 77 74
24 22 63 59 63 142 179 208 219 213 256 318 341 336 342 339 322 315 313 314 301 257 192 178 193 188 167 155 161 160 123 109 138 147 154 141 134 144 158 170 174 172 156 129
87 65 26 62 122 202 303 264 256 285 342 339 340 292 301 306 283 274 278 287 270 240 152 183 182 178 170 174 193 179 187 173 153 171 152 154 165 183 169 161 166 174 167 163
60 95 153 236 320 352 393 371 367 371 331 309 330 325 282 254 256 255 233 213 190 173 202 184 185 175 167 172 183 188 172 178 184 170 175 182 184 192 181 190 183 180 177 163
73 174 303 384 415 401 363 319 318 259 208 261 275 242 234 220 210 221 214 174 145 184 183 170 175 197 178 194 207 195 185 185 193 163 169 176 175 192 194 192 201 196 176 163
109 175 226 239 252 263 256 241 229 216 229 221 219 222 221 199 182 165 157 161 173 195 181 176 198 207 173 199 189 185 181 192 205 197 187 186 194 214 216 206 190 171 164 165
144 160 169 174 189 210 207 188 179 180 162 143 154 160 164 159 165 180 164 144 197 185 196 210 237 228 219 219 206 204 200 191 179 185 195 197 186 191 181 163 161 167 164 144
148 130 146 157 162 173 179 151 128 116 128 135 143 151 173 161 130 130 192 186 213 265 236 258 278 262 239 209 193 176 157 156 170 191 180 178 174 180 181 178 182 169 150 128
122 114 119 124 124 105 103 104 117 116 122 117 118 126 122 109 145 194 252 274 314 292 265 249 252 239 222 202 189 170 183 207 225 196 189 201 193 193 178 175 152 126 123 131
86 69 53 47 64 72 80 89 99 99 113 120 114 113 132 179 243 310 319 304 293 299 261 238 235 222 201 192 190 192 186 190 195 202 203 194 184 173 175 159 142 147 133 107
34 29 20 72 70 80 77 85 97 101 114 132 159 200 233 268 287 314 326 292 269 258 229 221 218 214 209 193 201 212 193 198 180 170 188 189 178 170 166 152 140 120 103 90

GFSNGP_con_3kmhel_156.txt.gz
Helicity
268 231 196 136 155 196 192 193 209 135 119 105 110 114 123 153 146 114 121 189 222 232 213 205 158 140 96 94 85 71 49 58 50 38 28 1 -18 -26 -20 -1 -3 1 21 37
158 153 130 141 159 135 117 149 142 140 124 118 153 189 198 128 84 76 55 92 103 182 185 157 122 149 167 159 148 115 117 117 89 98 84 37 8 -11 -8 -8 -14 6 22 17
125 135 138 159 154 174 158 107 100 115 102 188 204 222 165 80 59 56 76 88 168 157 141 100 113 178 206 214 216 198 179 145 119 107 113 92 51 26 20 5 -6 1 20 32
179 218 150 145 110 108 83 88 76 96 166 137 118 116 102 58 33 15 85 160 167 177 103 148 172 218 237 219 218 208 180 153 119 102 96 86 66 44 33 17 2 -0 8 32
283 211 141 144 106 68 112 86 85 125 175 191 176 171 81 82 74 87 140 197 189 144 142 178 228 236 245 203 174 162 144 118 94 84 82 64 55 54 35 29 7 8 17 20
214 185 130 50 35 6 96 136 120 245 257 184 137 122 63 81 140 172 224 220 193 187 203 239 227 244 228 175 149 127 96 84 66 67 58 64 71 53 41 26 30 16 22 21
193 179 139 143 101 63 128 101 149 161 126 135 110 62 59 138 159 200 232 244 249 227 224 229 210 209 189 151 122 88 69 52 41 23 68 89 89 76 81 77 56 22 20 15
248 201 116 128 121 77 67 120 130 182 162 109 88 86 105 171 228 243 239 211 206 223 206 196 183 179 145 112 89 75 55 47 53 35 64 62 81 72 70 64 64 38 30 29
171 130 117 68 31 58 126 189 211 178 122 145 106 72 150 179 238 244 225 163 143 157 156 160 153 138 114 54 83 84 67 66 87 99 71 53 55 49 54 53 45 45 40 27
157 131 102 101 115 137 93 116 109 126 120 117 97 149 144 174 224 264 236 201 162 160 150 130 134 116 107 78 78 103 96 85 96 93 68 57 53 49 39 38 46 42 33 25
138 138 128 114 120 132 141 152 153 132 106 127 128 107 155 163 232 276 269 250 236 199 215 187 189 190 162 145 155 134 118 108 78 74 74 65 55 46 52 38 41 30 14 13
103 102 115 113 161 123 99 118 138 170 162 163 146 140 163 177 261 289 308 326 303 267 274 230 234 230 198 181 202 197 170 129 99 80 72 72 82 89 78 58 72 72 47 23
74 77 65 85 116 127 127 128 134 168 172 161 146 207 181 197 271 288 309 325 295 267 261 241 243 243 213 212 224 200 174 141 132 126 122 99 83 85 67 66 75 103 104 85
73 68 68 78 89 96 116 125 171 175 200 213 177 188 218 236 261 290 284 300 284 281 289 302 274 235 200 228 219 200 170 149 141 135 132 138 118 85 79 75 79 141 137 125
39 50 86 77 80 88 95 112 165 208 210 195 210 239 245 255 253 231 274 305 313 319 323 314 281 208 189 213 213 195 170 143 127 123 114 129 131 146 146 131 126 151 125 116
77 73 83 94 95 113 145 153 193 245 273 251 252 233 217 237 258 248 304 345 341 277 286 272 242 181 168 185 182 177 158 140 120 135 145 160 158 164 174 167 155 145 132 106
104 90 99 109 112 109 140 155 206 271 284 254 222 271 320 355 345 313 317 279 271 269 257 245 206 174 165 171 181 168 159 146 157 158 165 163 157 164 174 167 145 133 129 114
26 13 49 85 70 76 110 141 184 205 190 194 261 323 362 349 311 298 323 320 317 300 229 205 193 168 171 174 183 161 149 142 146 153 156 162 153 158 165 173 156 142 150 160
18 25 12 33 56 120 154 192 225 268 274 266 311 297 308 335 309 322 314 292 259 233 154 184 170 185 193 187 160 159 139 151 158 155 149 157 165 165 171 186 184 178 176 177
19 1 5 12 27 136 212 285 403 349 275 309 371 354 311 275 305 295 234 211 168 150 193 182 179 179 189 203 201 181 169 164 177 171 173 188 185 185 185 188 185 198 204 192
-5 12 39 101 180 258 294 360 387 314 316 310 298 237 232 260 245 249 225 179 134 161 183 188 184 186 196 205 194 198 197 182 185 181 171 185 202 198 209 212 209 197 185 176
10 21 53 126 168 238 267 259 266 280 278 261 237 276 275 223 197 179 165 167 162 179 192 180 178 181 188 203 198 193 191 184 178 190 190 192 207 223 214 205 201 186 172 161
55 82 125 169 185 208 205 199 192 203 209 176 194 183 163 154 167 188 149 135 184 177 189 180 181 207 202 198 201 194 183 179 174 181 189 194 196 198 189 185 184 173 158 143
97 112 136 138 157 165 178 157 152 139 157 146 139 147 174 178 157 134 150 162 184 202 199 201 206 216 207 192 182 173 162 166 181 187 189 188 185 191 194 193 183 154 151 161
109 99 102 120 134 121 127 130 133 116 106 97 101 113 129 133 141 158 184 195 219 227 219 211 233 223 198 182 172 163 160 164 166 184 180 181 189 189 182 177 157 147 148 141
78 68 68 71 72 79 76 75 85 83 100 113 108 120 140 153 178 224 214 216 221 229 230 233 219 205 195 183 177 173 182 197 199 187 188 188 188 180 176 165 150 145 136 117
73 62 58 57 54 69 75 78 86 81 95 114 131 143 166 181 204 223 229 231 237 236 235 217 201 207 206 190 178 180 183 181 183 182 172 180 174 171 165 154 138 123 115 105

GFSNGP_con_3kmhel_162.txt.gz
Helicity
56 35 95 150 196 184 257 258 294 177 138 123 129 112 137 167 170 163 186 192 224 233 243 283 309 271 210 164 130 126 125 114 101 109 85 73 61 50 33 37 28 24 24 23
-3 42 82 77 90 253 270 298 287 264 172 126 116 168 182 176 229 198 163 126 117 139 216 269 258 223 187 161 135 131 123 103 127 111 91 72 51 39 44 38 33 43 41 21
98 94 65 117 156 149 277 296 238 186 143 163 153 118 104 166 172 143 105 94 102 137 197 222 212 211 175 144 155 150 133 140 135 113 97 73 59 52 48 36 33 41 38 29
64 130 244 158 152 71 97 124 110 128 164 121 130 154 165 179 130 89 80 100 135 175 168 166 206 197 195 175 179 169 158 161 141 120 100 82 68 66 47 44 44 29 38 34
144 154 196 125 85 129 138 68 107 123 112 141 177 207 173 108 105 68 65 99 144 180 192 190 201 214 231 215 206 188 170 156 139 122 110 87 71 68 61 56 38 31 28 32
173 197 170 116 86 117 160 70 63 109 134 159 179 170 108 87 83 84 79 120 188 210 209 225 215 233 243 213 199 165 149 141 136 115 104 84 68 70 70 51 47 34 37 32
213 258 257 108 102 172 139 67 44 88 119 158 121 102 88 140 148 105 110 137 211 209 208 205 222 237 223 202 152 150 156 147 131 120 103 82 75 71 64 51 58 41 40 35
204 171 136 58 135 128 88 62 74 84 99 85 160 167 164 113 101 98 131 176 193 235 228 224 210 217 206 157 155 170 165 150 133 115 95 82 105 89 81 83 68 56 47 51
124 142 81 0 54 82 56 59 75 102 129 153 165 98 87 61 75 89 137 166 190 246 256 215 194 183 185 160 185 176 162 147 132 123 106 92 98 88 83 65 55 50 48 67
136 167 125 53 74 69 57 44 59 65 88 106 92 107 87 88 112 130 151 161 178 224 233 237 195 161 171 183 183 167 147 141 134 130 112 95 80 67 67 64 55 49 60 69
71 48 56 71 74 67 75 87 66 95 94 78 134 89 115 120 138 145 160 185 186 165 184 212 190 155 166 177 182 157 143 141 130 129 119 108 78 60 63 48 60 67 57 61
38 57 70 90 94 80 98 100 102 128 111 89 97 99 154 146 156 194 198 217 182 140 176 198 190 172 167 179 175 164 148 143 136 137 126 106 108 103 87 89 98 96 78 70
56 62 71 79 74 72 65 62 55 61 70 62 92 157 168 173 177 202 219 220 201 178 177 202 204 190 180 186 187 172 162 146 137 132 129 127 124 125 116 72 108 122 117 115
65 74 88 112 112 118 89 68 80 85 84 93 86 162 206 202 218 221 227 213 232 246 232 218 223 192 195 209 196 179 177 158 142 132 133 133 132 116 116 130 178 139 146 159
68 95 103 94 76 69 82 88 87 87 93 91 102 137 204 218 198 191 220 252 267 274 268 255 237 201 211 224 209 193 180 154 146 140 128 121 135 135 127 161 184 173 163 179
70 90 90 74 42 48 64 74 78 72 96 97 115 152 176 227 246 237 269 297 298 236 252 246 227 214 212 208 204 202 187 172 169 160 151 151 146 147 153 172 184 169 167 159
66 19 37 49 34 34 41 80 109 127 118 121 123 184 258 264 268 260 249 228 221 247 278 270 243 249 213 198 202 203 201 187 175 168 160 156 158 159 168 179 179 179 161 157
59 44 43 42 37 29 18 21 46 83 108 117 183 228 252 237 228 243 265 325 319 333 314 261 282 261 218 197 208 212 208 197 181 168 172 177 165 170 185 189 190 190 183 183
68 45 31 33 36 30 17 14 35 57 75 127 184 170 206 241 244 256 302 318 304 306 231 244 267 266 216 195 209 212 214 209 196 191 191 195 188 184 187 187 189 185 187 183
36 49 47 49 35 20 26 29 22 53 93 146 192 232 246 259 288 312 296 279 241 182 235 230 253 238 208 193 218 213 212 207 197 196 204 191 180 182 185 186 185 184 184 179
33 25 13 -2 12 16 16 11 17 88 153 203 241 288 339 323 277 326 360 338 198 213 250 244 240 221 212 213 218 213 215 210 205 197 188 184 189 188 188 187 187 188 186 185
7 -9 4 11 17 33 40 37 72 138 202 259 288 296 327 330 331 295 283 162 203 221 233 222 217 222 221 236 215 207 210 209 207 206 199 192 187 184 175 183 180 178 176 171
-28 -27 1 22 24 29 35 53 102 164 182 151 150 167 181 174 212 248 211 189 215 197 214 207 206 238 246 224 209 212 216 214 200 190 185 177 170 171 176 169 178 185 178 172
-11 0 34 68 48 54 65 77 85 84 130 124 124 157 204 210 209 179 211 204 193 205 205 220 220 234 242 220 221 222 215 203 191 187 182 182 173 176 184 182 180 164 168 165
15 26 73 96 84 74 74 79 103 107 108 141 160 156 143 144 145 149 174 177 199 226 221 213 224 243 225 213 215 209 198 191 191 195 187 174 169 169 165 162 166 156 154 144
84 78 77 75 70 72 70 74 88 78 89 131 154 142 144 132 161 176 193 206 208 221 223 209 210 216 207 206 205 203 200 198 190 173 168 168 166 159 155 158 160 150 135 129
63 56 59 67 60 62 66 65 71 69 69 84 109 100 123 143 172 188 200 203 208 210 218 213 210 211 215 217 213 203 190 179 170 170 164 157 145 145 143 144 135 129 131 132

GFSNGP_con_3kmhel_165.txt.gz
Helicity
71 99 78 103 106 158 161 167 184 122 126 128 120 116 132 156 224 186 91 122 166 205 254 279 262 257 260 235 198 164 131 108 103 118 125 114 107 100 82 75 60 43 42 39
97 77 60 76 40 59 53 96 139 107 113 141 143 144 128 137 161 149 177 129 140 161 172 198 231 257 237 214 176 151 123 104 114 112 116 107 100 87 82 69 56 51 47 31
100 79 66 56 86 102 108 142 177 175 151 170 145 91 77 92 124 168 179 134 123 108 112 152 208 224 199 179 182 138 110 119 118 112 97 99 92 82 76 65 49 55 48 30
116 109 112 97 108 67 28 16 142 173 164 160 54 65 111 147 151 171 175 157 130 100 106 130 167 175 188 197 162 138 131 128 124 108 104 98 87 80 68 57 56 53 45 43
136 92 88 72 111 130 114 34 36 12 53 89 88 113 97 97 103 123 134 123 83 87 116 154 166 177 183 181 160 145 136 138 130 116 107 96 80 75 64 62 66 55 42 40
136 141 72 70 54 87 136 101 60 67 54 123 140 138 101 133 153 174 128 104 107 115 143 167 157 177 191 182 164 139 144 152 143 118 100 87 76 72 64 67 61 48 46 37
98 126 89 90 134 100 148 75 59 64 76 121 138 112 79 118 155 162 147 103 110 122 152 158 186 192 185 181 158 157 158 150 137 121 110 98 81 67 69 64 60 49 48 47
86 107 111 121 225 196 43 71 47 26 40 75 99 102 142 136 146 117 121 113 119 140 156 171 193 196 194 171 178 175 165 153 133 123 112 95 84 75 72 68 60 50 53 56
89 97 152 146 96 30 11 1 46 35 43 87 133 123 134 150 109 95 89 97 119 134 167 167 179 185 206 200 191 187 162 147 139 129 110 96 86 81 78 64 55 54 57 57
69 112 71 154 68 53 76 33 32 33 55 97 89 111 85 80 85 71 89 109 127 145 161 172 165 161 168 200 191 187 161 158 146 137 130 106 85 79 73 67 65 63 59 72
67 25 15 -36 -1 17 1 45 50 55 31 37 59 60 76 78 60 85 112 114 112 102 119 136 163 172 184 197 191 174 165 155 146 137 123 108 87 82 75 70 61 70 75 75
69 50 28 12 18 43 50 53 52 67 95 74 56 61 84 84 77 115 119 127 133 119 108 130 153 185 190 185 178 183 167 145 142 144 127 112 115 119 92 87 96 103 92 95
73 57 26 28 70 61 69 69 68 48 52 75 62 85 72 107 128 107 133 141 152 124 128 149 161 179 199 184 175 169 171 164 152 144 131 123 119 109 114 90 101 113 115 104
74 61 56 81 45 94 96 84 105 80 64 64 66 93 114 121 143 147 147 152 147 169 190 209 214 215 223 217 206 196 200 187 170 143 129 122 108 101 103 104 116 132 150 151
69 108 105 98 89 60 59 36 36 48 68 80 87 75 85 112 121 143 161 181 206 205 233 248 242 235 256 253 226 218 203 168 152 136 127 119 111 107 109 114 132 152 163 173
15 43 63 75 48 42 43 46 24 10 17 23 49 75 87 84 104 175 212 222 256 237 221 241 234 253 275 251 222 213 182 171 161 131 127 122 120 125 133 135 147 156 149 153
53 61 80 56 55 45 32 27 29 40 61 72 73 99 140 170 214 221 226 224 201 225 240 250 239 303 280 251 236 198 166 149 142 143 136 133 138 139 142 146 144 145 145 162
93 98 98 93 49 44 41 32 27 26 33 45 79 104 156 174 170 197 213 244 261 263 262 259 276 321 275 235 215 188 171 166 160 154 157 154 148 154 161 157 154 163 177 188
146 131 104 70 67 46 41 46 41 28 16 30 83 122 127 121 170 205 234 217 216 257 208 252 313 313 269 227 210 170 170 180 179 173 161 170 177 174 172 164 167 173 180 179
159 109 81 80 84 62 38 29 32 29 20 44 98 133 127 140 177 210 218 201 181 206 273 290 303 267 251 227 209 171 176 180 183 181 182 182 177 171 165 167 173 175 170 166
91 98 80 52 55 28 -4 3 9 19 36 60 127 141 160 198 230 254 286 266 246 256 304 293 277 285 259 226 195 183 180 182 182 185 185 182 181 169 165 166 168 167 169 169
34 23 3 -9 -3 -13 -1 12 -8 -1 20 83 169 193 216 229 277 308 296 301 363 247 272 253 252 255 241 238 195 188 180 180 184 186 186 177 165 158 158 165 168 169 168 166
14 -5 -24 -31 -7 13 26 25 4 31 68 83 138 153 160 170 212 345 358 228 238 220 215 220 217 267 279 237 207 192 185 188 186 178 168 155 150 155 159 161 168 174 172 171
24 -6 -26 0 15 29 55 49 62 70 87 99 123 123 136 172 181 156 161 179 198 200 196 194 224 252 241 211 195 185 182 184 180 171 163 164 158 160 161 167 173 168 167 169
50 54 55 11 36 68 75 67 81 80 84 102 80 96 103 116 122 144 175 178 182 181 181 202 237 240 207 192 184 181 183 180 173 170 162 161 163 160 162 165 159 157 156 152
23 35 48 51 59 67 66 66 71 70 71 91 109 109 116 125 156 162 157 170 163 172 195 208 207 202 193 189 192 194 192 186 174 161 162 160 156 161 162 159 157 149 144 145
69 76 67 62 61 56 56 56 56 50 50 63 93 101 108 112 119 127 146 154 167 180 202 198 192 197 193 192 195 194 186 172 161 161 159 158 153 150 145 142 144 143 140 135

GFSNGP_con_3kmhel_168.txt.gz
Helicity
127 140 140 121 148 155 157 149 194 133 157 85 108 119 223 236 128 131 208 169 129 106 167 214 261 286 290 242 231 215 216 209 203 190 165 137 118 122 112 104 101 91 87 74
96 73 74 85 94 75 75 94 117 146 85 47 72 104 105 71 111 176 169 160 104 123 162 228 272 267 258 244 222 204 202 180 180 153 137 120 124 111 112 103 94 87 87 76
138 92 87 162 87 68 34 49 84 55 72 37 82 140 125 97 137 106 122 133 152 147 179 191 194 208 218 221 225 210 176 176 153 123 118 122 119 118 108 99 90 86 70 58
101 71 154 78 46 66 62 30 33 44 31 17 113 177 222 131 25 35 102 165 163 190 163 130 132 144 195 216 217 179 164 155 134 119 126 124 117 113 108 95 86 85 76 61
107 96 82 47 29 37 47 33 22 38 -6 81 165 135 73 -2 31 79 158 152 146 145 141 91 108 149 202 215 185 167 166 148 130 124 134 127 116 111 106 94 92 90 68 62
158 137 87 51 126 95 36 45 10 32 24 34 69 46 13 66 95 132 142 178 187 126 79 99 125 160 193 182 169 164 161 156 152 140 141 132 118 111 102 98 86 77 69 63
69 107 121 43 101 62 48 103 196 88 71 44 69 31 74 101 132 145 188 170 140 93 94 99 134 164 154 163 174 162 179 171 172 166 166 160 127 101 95 96 92 81 67 62
65 80 55 161 69 81 149 183 226 72 36 15 30 81 80 104 176 169 173 163 107 103 98 125 132 133 153 160 178 200 191 179 179 169 151 124 126 103 96 100 87 67 60 55
90 104 77 39 76 124 152 179 211 176 53 10 18 67 82 122 133 118 112 95 106 99 123 132 118 124 156 188 208 218 194 185 177 164 145 122 121 101 88 85 77 64 54 63
45 52 30 31 22 71 183 153 147 123 73 21 19 72 100 133 141 131 86 82 95 102 113 129 133 149 162 209 214 210 198 195 181 154 145 123 106 91 89 83 74 66 67 75
25 13 7 37 -13 -20 29 67 78 7 -0 4 27 70 103 114 111 101 99 77 80 93 106 118 151 157 187 187 206 198 192 179 164 154 128 130 113 100 94 93 80 76 80 84
34 41 69 67 29 -9 2 -8 -47 -20 11 35 59 85 136 47 68 103 71 57 84 95 121 146 135 141 178 183 188 200 188 173 164 156 141 135 137 146 199 145 141 156 149 106
7 29 40 9 11 19 19 24 33 37 29 67 30 78 41 38 83 115 91 73 82 117 137 151 122 137 160 183 186 175 161 167 172 156 147 142 136 130 151 141 130 115 110 111
-3 4 -31 -12 16 31 24 31 62 77 69 70 67 44 41 74 93 86 72 98 121 141 160 150 135 145 187 196 199 202 179 173 168 154 150 149 137 129 124 112 115 115 107 109
13 30 37 34 49 44 40 40 36 33 30 57 66 59 63 77 81 66 90 125 148 158 172 192 190 202 222 241 255 244 212 188 180 176 171 155 143 127 107 102 101 126 143 163
3 4 18 40 44 52 63 67 52 35 33 13 25 38 53 54 45 71 103 144 183 203 225 231 242 263 268 267 269 241 211 209 200 175 172 152 130 116 107 105 128 132 117 135
5 20 53 61 65 85 86 76 78 60 55 46 39 51 60 73 122 176 184 180 185 236 255 271 283 316 323 305 284 236 212 205 190 167 150 132 120 110 111 118 119 126 130 165
55 63 75 76 82 100 109 94 67 51 43 45 59 50 74 130 114 157 193 217 255 300 251 276 346 358 346 294 260 229 215 200 179 152 139 131 116 117 119 123 127 143 178 199
78 94 118 117 109 85 97 113 70 38 18 5 14 20 44 69 112 162 192 226 231 224 212 318 352 411 271 255 260 222 201 187 169 158 146 146 143 135 137 137 146 149 163 155
105 98 98 97 80 83 55 27 97 76 31 -1 -3 19 48 85 144 162 152 158 143 149 224 240 293 271 249 284 243 199 188 179 175 177 178 162 159 162 154 152 153 155 152 145
85 101 91 65 67 32 -10 -41 -9 29 9 -10 -20 3 58 112 134 144 148 143 179 214 241 267 320 327 322 273 217 202 200 195 184 178 178 178 179 165 165 159 155 151 149 152
72 82 81 71 50 -15 -17 5 5 -16 -26 -11 11 46 97 125 130 134 163 133 177 248 322 332 324 329 288 252 230 212 179 176 179 181 177 179 168 170 159 154 149 150 155 157
64 74 77 64 21 -20 1 10 -13 -13 -14 7 24 62 91 114 109 137 184 266 298 365 467 446 268 255 254 299 250 212 184 179 177 173 177 170 165 158 155 148 147 155 156 160
67 83 62 57 38 -7 -12 22 19 25 30 57 74 79 96 113 138 165 130 163 223 243 227 224 195 220 275 278 223 198 183 178 179 182 181 177 169 164 156 158 152 148 159 165
93 78 42 57 23 -9 26 48 50 56 58 77 83 81 84 122 83 92 108 146 163 185 194 168 181 211 235 208 197 194 180 178 184 188 182 177 169 158 154 150 152 158 156 145
72 81 24 33 41 37 33 38 48 56 56 63 79 85 96 89 104 130 152 176 187 173 173 158 159 187 194 196 199 195 186 195 195 185 178 167 156 153 152 155 167 163 151 145
63 92 50 56 56 64 65 53 44 42 42 50 74 87 88 88 104 125 149 160 157 148 148 169 181 196 209 208 199 191 190 194 191 184 174 165 157 158 157 160 156 154 151 143

GFSNGP_con_3kmhel_174.txt.gz
Helicity
129 171 140 190 124 -8 -17 24 123 170 258 257 185 93 52 47 86 136 183 260 247 285 394 360 378 396 420 319 219 246 320 330 338 346 321 286 255 253 222 198 170 165 149 135
106 76 33 29 31 45 74 25 40 86 -4 -95 23 56 77 80 79 123 168 178 281 264 383 396 378 255 374 164 161 234 280 290 297 292 255 251 236 206 188 163 157 147 137 120
106 60 57 143 46 18 12 38 50 91 63 42 33 39 51 75 89 103 188 190 263 264 286 361 490 383 286 120 165 224 243 248 257 259 257 222 195 178 143 146 127 142 94 89
133 104 196 118 47 45 54 37 23 23 13 60 76 89 40 36 113 131 122 157 411 344 239 317 484 290 131 186 213 210 212 253 246 239 236 208 172 151 133 119 140 124 92 51
119 117 103 61 15 13 47 63 77 68 131 185 108 94 142 110 189 147 219 237 267 350 372 256 265 235 122 179 240 222 236 261 222 200 202 181 162 151 126 136 115 147 138 152
122 116 94 75 28 55 100 133 150 213 139 182 78 151 44 45 178 134 189 212 355 350 194 190 181 151 169 281 272 217 255 253 219 179 190 172 165 155 158 160 204 192 195 193
98 103 148 53 73 95 66 58 108 34 95 123 140 81 29 -2 108 144 167 234 125 154 82 179 184 226 237 246 213 196 232 257 234 189 206 199 189 195 193 254 213 213 200 157
63 106 88 193 112 102 101 86 94 52 102 115 126 113 112 42 81 37 59 118 253 207 248 265 275 186 166 170 213 255 230 241 245 236 230 228 241 232 264 266 266 191 139 125
94 112 92 32 -4 -26 48 25 7 64 153 82 107 138 178 79 109 65 171 273 167 145 141 147 130 108 128 171 231 215 228 236 238 223 240 209 252 244 253 240 198 150 127 112
-22 69 56 -23 -54 -88 42 18 16 11 11 49 89 114 202 61 -14 71 113 72 76 108 130 131 99 79 147 215 176 218 257 243 244 257 237 196 214 197 209 196 160 141 123 114
86 82 79 73 73 87 54 29 12 -3 -26 -17 45 34 102 43 -1 42 70 66 101 96 96 94 87 90 162 202 192 252 251 251 248 232 211 202 216 178 173 179 142 128 113 125
0 38 7 33 55 40 17 15 27 -1 -10 5 4 62 5 95 164 94 43 138 121 99 95 90 73 47 190 215 207 251 232 224 224 231 195 214 288 349 318 279 237 187 217 253
51 50 31 46 4 15 3 1 5 36 18 13 62 52 4 16 -26 128 198 141 124 128 124 119 113 104 197 218 210 242 227 232 253 256 189 254 365 371 380 343 316 284 270 220
33 90 62 23 17 13 9 2 -3 -15 14 29 39 79 39 27 74 85 96 271 237 149 136 132 108 134 219 221 238 251 242 285 285 274 215 279 337 338 324 318 319 305 227 211
6 16 17 22 20 7 -3 -7 -6 -7 -2 25 49 72 135 107 91 62 25 63 24 61 244 180 123 192 278 266 279 264 284 301 305 308 270 306 383 367 268 235 261 270 256 213
19 34 49 39 17 10 9 24 46 73 88 104 107 108 156 189 135 99 86 132 143 56 141 98 225 282 325 303 274 286 335 387 382 351 357 384 392 342 249 192 201 193 186 218
62 40 32 16 25 70 79 96 92 117 134 144 183 165 114 94 91 94 113 87 156 184 193 308 361 396 377 374 331 315 419 436 430 395 362 351 341 287 234 189 182 188 172 188
42 36 64 66 65 73 77 115 139 152 143 115 89 96 86 78 67 52 52 84 108 206 231 328 411 443 416 387 364 400 466 453 443 403 313 307 277 244 217 187 195 186 144 176
53 71 83 68 76 91 110 122 145 136 94 88 64 45 39 40 48 41 46 67 72 136 211 299 423 477 410 401 450 462 488 505 500 308 287 264 243 231 210 193 211 184 224 248
63 47 60 93 109 100 92 105 99 92 71 65 49 57 26 21 -11 35 27 46 51 75 179 285 358 395 403 415 450 483 520 509 370 318 296 259 224 207 197 198 205 261 270 271
94 80 83 87 72 65 86 115 119 93 73 43 -7 -73 12 25 -7 9 6 37 32 102 159 255 292 348 379 400 476 497 451 392 342 334 296 243 207 209 211 216 219 262 278 252
46 68 65 62 62 59 60 91 83 58 43 31 8 26 -10 -13 -10 15 37 59 89 147 195 190 183 245 327 405 462 476 367 361 364 301 269 242 231 232 232 229 242 264 292 242
53 56 45 58 63 64 77 106 64 65 47 46 35 31 31 11 10 13 29 89 131 112 160 146 140 230 310 340 383 423 488 389 326 270 251 235 220 220 236 239 251 280 282 292
54 52 52 54 55 59 56 70 66 64 72 52 43 40 39 35 24 50 105 117 99 116 134 127 193 276 282 316 488 588 441 296 276 274 244 224 232 240 260 267 273 286 298 307
63 45 21 34 44 48 54 94 72 59 53 44 42 38 51 55 51 59 60 91 130 166 190 223 326 398 415 481 466 348 293 288 292 270 252 251 255 267 273 262 276 283 286 267
40 31 42 51 61 60 67 85 60 66 65 58 55 36 48 48 45 45 48 59 101 119 158 175 186 244 286 311 294 288 296 283 268 253 255 262 265 272 269 271 280 285 267 266
30 27 12 16 28 60 86 80 66 49 66 48 68 42 40 50 50 39 43 59 64 75 96 134 160 198 219 247 281 293 275 257 254 263 258 259 259 272 266 273 277 274 259 278

GFSNGP_con_3kmhel_177.txt.gz
Helicity
230 221 181 165 168 141 151 136 179 101 150 124 97 95 65 61 48 110 114 251 364 514 628 738 779 716 635 574 492 482 429 390 318 333 340 325 328 316 283 268 255 232 193 196
-149 -147 -34 -61 75 69 91 110 108 76 73 12 11 63 83 73 60 115 187 275 376 492 572 670 670 666 636 561 526 537 559 437 294 352 307 293 284 264 246 245 225 206 179 174
-9 60 102 139 27 73 90 108 90 151 67 48 90 67 58 109 126 162 85 316 453 525 582 651 605 622 578 535 546 563 729 310 312 306 277 261 240 228 222 198 168 174 162 167
151 140 146 135 104 98 72 84 78 76 135 96 83 85 47 44 50 89 162 128 409 570 610 603 579 529 510 542 515 489 312 280 308 270 279 236 221 194 203 147 144 143 123 162
167 138 131 57 63 75 85 70 53 88 119 108 110 111 115 124 45 73 55 72 135 343 537 563 612 609 568 426 413 317 214 246 327 280 258 239 201 186 155 143 145 133 139 162
181 191 148 96 112 118 44 92 103 113 94 108 96 111 98 89 23 33 56 98 134 323 585 584 513 570 575 317 180 144 186 280 249 245 230 205 184 150 118 124 141 267 246 191
124 212 143 119 68 80 117 128 163 90 65 89 77 51 46 24 35 46 104 118 140 308 444 468 513 489 273 79 2 133 274 267 208 187 195 174 151 141 153 214 306 318 280 207
87 91 174 180 104 106 124 93 -1 46 91 101 76 60 90 108 42 81 153 114 72 123 254 271 121 113 45 31 148 187 237 240 204 186 177 157 186 232 281 332 331 287 260 206
116 62 31 52 38 -12 20 44 -3 14 32 57 33 64 60 65 84 88 90 77 93 127 144 186 149 107 41 134 201 233 260 240 210 200 214 211 283 308 352 327 295 240 199 184
35 81 50 40 59 -96 2 28 -5 45 3 -15 14 28 -39 -4 81 94 79 177 151 193 199 199 177 52 144 228 263 307 290 259 258 263 288 289 337 337 331 305 256 209 176 158
33 36 54 -40 -38 -49 -20 25 5 27 14 12 42 92 46 3 94 113 -34 56 115 128 139 141 109 124 211 262 276 268 273 277 255 289 291 282 298 308 270 223 208 192 161 148
-22 18 30 156 -30 17 45 29 45 41 11 12 68 79 46 -7 -3 103 156 84 140 158 142 123 130 157 224 236 254 284 271 253 258 300 282 272 327 314 181 164 125 127 129 174
54 12 45 229 81 26 28 29 10 34 7 26 53 72 55 27 -38 -19 96 143 109 121 123 137 149 180 226 228 284 278 255 255 281 313 299 332 363 378 379 246 153 189 209 231
-2 -12 -5 50 9 55 57 25 -4 -5 9 10 42 111 123 111 57 34 10 64 140 221 172 147 145 202 231 290 313 279 262 283 311 284 327 355 378 360 371 361 336 287 243 258
24 40 41 48 43 20 13 24 23 62 75 80 81 116 115 127 109 81 69 111 173 192 162 165 203 222 216 307 330 300 291 306 323 285 374 366 382 356 364 383 349 334 301 270
111 76 49 75 63 31 65 95 87 79 71 74 88 122 142 152 177 187 120 111 206 173 140 164 113 89 183 333 352 348 341 377 373 326 421 400 370 364 352 355 350 320 302 277
89 49 55 43 88 97 93 84 81 79 97 122 119 102 92 87 100 112 145 179 157 117 176 163 136 161 206 342 381 372 394 412 406 377 428 446 407 359 334 315 298 271 271 264
52 64 119 105 74 80 94 95 100 105 111 115 117 113 110 110 104 72 73 91 104 82 72 152 240 252 297 396 436 441 450 445 432 428 452 442 382 337 324 291 254 241 239 190
50 136 134 88 86 77 73 84 94 106 106 106 111 95 81 65 57 63 42 41 47 48 57 101 241 363 397 451 514 480 481 491 484 461 449 427 343 325 309 274 242 225 214 178
47 73 114 99 78 69 71 79 86 80 94 115 86 75 69 50 56 56 32 19 7 36 39 102 177 319 410 453 519 500 506 532 528 515 523 423 312 313 284 262 246 222 200 184
101 99 81 71 65 56 49 54 60 73 90 90 72 75 63 57 36 59 43 -10 14 19 55 107 177 249 339 425 476 463 500 544 545 548 511 369 310 283 272 275 304 272 243 217
67 62 60 53 47 56 62 42 53 75 78 74 75 68 53 52 59 50 29 -45 -15 4 111 134 155 231 304 359 451 465 485 510 509 466 363 343 287 268 259 273 299 277 259 242
57 41 28 25 51 63 51 45 50 61 79 78 62 64 65 64 62 44 43 27 10 42 102 115 117 161 210 275 391 429 450 496 456 511 381 293 262 248 255 276 307 278 266 257
27 44 63 58 54 55 48 42 61 61 81 73 56 48 37 49 52 51 36 47 52 37 75 77 69 124 160 222 315 366 393 410 409 377 311 248 245 272 279 297 318 293 267 287
75 81 38 8 25 32 52 65 68 64 84 75 66 61 43 27 38 43 39 49 63 74 85 72 85 154 196 249 305 391 469 436 318 294 261 248 261 279 285 304 316 330 326 314
94 98 74 54 24 23 32 62 65 73 86 63 90 62 30 30 35 36 45 49 51 61 75 97 152 201 236 242 271 323 331 295 268 250 267 281 289 295 298 314 323 315 310 304
104 76 35 25 6 -2 29 66 78 69 79 68 67 45 37 37 36 39 50 57 60 60 73 101 138 196 235 269 306 279 248 249 260 274 276 290 293 296 305 305 299 299 295 297

GFSNGP_con_3kmhel_183.txt.gz
Helicity
167 181 181 117 49 89 155 129 82 94 128 181 168 70 26 13 -18 33 84 121 151 154 178 254 333 219 356 433 508 564 602 590 595 615 619 541 444 384 354 303 248 188 187 204
200 88 -39 71 61 70 111 136 87 86 82 88 91 98 53 55 43 37 74 124 150 173 174 161 229 280 327 512 622 642 663 641 634 602 562 514 486 438 414 308 232 190 184 191
156 -14 8 58 90 118 172 102 86 88 29 73 62 39 61 83 117 119 97 98 95 106 125 220 286 403 427 453 669 700 725 756 657 687 568 522 500 490 455 361 210 170 164 177
226 175 131 115 155 61 28 88 58 21 26 51 46 90 79 110 126 125 103 98 92 84 69 116 235 346 421 545 669 705 721 756 807 724 571 553 574 525 401 293 189 189 189 191
279 219 286 174 134 110 79 74 93 60 46 48 47 55 66 97 100 86 88 88 92 106 88 92 245 334 433 491 593 687 704 770 866 806 626 553 514 432 317 194 189 163 194 194
268 146 94 112 238 169 172 131 52 57 47 55 102 90 83 115 90 60 46 61 77 57 65 132 229 362 428 519 547 582 788 695 874 797 664 503 433 318 217 150 190 193 193 176
249 292 312 213 178 101 130 71 70 60 57 66 86 98 34 11 8 45 48 52 84 85 96 136 209 317 381 456 453 528 576 804 834 714 613 400 347 267 195 159 194 179 203 170
140 232 262 78 82 94 91 35 57 63 45 44 35 27 11 18 31 46 27 47 79 101 99 96 127 213 298 358 389 552 676 847 728 678 379 333 229 187 173 222 201 195 210 179
199 220 187 211 161 55 -25 5 42 35 28 34 17 25 30 28 48 41 30 9 81 76 120 94 131 213 324 435 560 602 687 627 341 359 262 191 162 192 204 237 222 204 179 178
32 18 66 61 7 31 35 49 99 89 36 37 39 32 41 38 52 14 22 25 58 61 134 149 245 246 339 391 362 337 317 296 226 188 167 152 162 203 248 226 217 184 173 149
72 50 31 24 18 52 56 54 86 77 59 49 38 24 33 29 2 14 -11 24 44 67 84 164 111 24 32 58 104 97 98 128 127 107 128 153 184 212 203 200 213 193 137 156
46 44 11 70 45 0 62 188 195 139 61 26 23 15 17 -1 0 2 -45 0 49 68 115 94 67 41 39 105 94 106 114 112 112 136 144 159 193 179 124 161 146 127 179 186
83 73 30 32 32 40 54 50 85 83 29 16 34 18 28 13 -4 -26 -29 -12 61 86 82 62 75 80 92 94 95 71 87 109 121 145 161 179 189 194 184 92 127 157 131 110
46 70 50 0 44 41 42 23 -1 8 51 35 12 22 34 36 31 1 -13 -11 -4 49 101 99 108 152 140 138 132 136 140 148 163 172 192 197 175 174 177 192 176 130 91 99
31 19 55 43 15 42 39 5 53 108 104 106 96 70 66 65 63 12 -12 -16 -5 10 52 118 154 160 206 248 224 186 170 184 206 225 231 213 203 183 184 191 198 196 169 110
87 89 89 51 29 13 3 -3 99 117 105 95 82 72 69 74 67 82 96 103 63 32 47 77 97 169 213 245 242 220 233 241 266 284 270 242 225 204 204 205 219 220 163 145
88 92 112 105 38 31 68 130 155 115 80 55 32 50 75 83 92 120 113 101 89 53 43 73 70 125 220 266 313 301 275 277 316 329 259 232 223 220 228 240 234 197 178 203
65 65 91 154 120 146 178 183 140 73 38 22 44 65 68 80 101 103 111 116 91 54 48 43 73 120 178 245 310 346 292 304 297 238 237 218 214 229 248 249 247 232 220 217
54 3 46 101 128 138 135 95 67 59 61 49 61 65 65 74 84 106 115 101 88 58 57 61 57 96 116 184 233 300 285 243 226 225 219 228 236 229 250 256 254 245 233 268
149 100 118 192 196 119 73 56 50 52 46 53 47 44 59 87 110 111 99 95 73 60 74 80 78 81 71 121 177 277 336 354 262 236 244 236 239 247 264 270 285 277 245 251
83 82 67 117 150 93 56 43 44 40 32 24 16 19 40 74 76 94 101 95 84 80 41 9 34 49 52 81 138 157 210 375 383 326 303 293 292 302 320 299 294 305 275 253
20 17 32 24 27 38 32 30 39 33 22 19 16 31 48 42 62 107 112 103 86 77 44 38 48 29 33 66 113 142 190 271 367 342 338 331 326 355 357 369 339 329 299 279
40 49 49 45 19 34 31 31 27 26 22 31 25 33 52 60 81 102 102 106 30 28 32 36 42 37 43 73 120 172 167 205 277 316 327 335 340 366 391 356 344 336 312 297
40 37 41 22 43 37 29 21 43 46 36 31 27 16 41 56 81 67 73 46 28 17 20 37 44 56 40 70 119 162 185 204 243 265 286 303 319 321 304 307 336 310 300 286
76 80 75 86 90 80 61 54 41 30 24 16 14 36 48 52 46 63 59 35 26 20 16 34 51 52 59 87 131 158 157 181 228 232 227 227 221 254 264 293 317 304 277 251
86 98 95 86 82 71 59 47 37 33 38 39 38 44 41 30 49 55 39 28 17 18 30 39 42 44 61 85 117 142 151 162 168 175 179 208 223 291 291 289 278 245 227 229
69 96 102 92 77 72 48 24 15 19 30 31 30 33 35 36 40 37 31 28 21 26 34 42 55 72 94 109 128 136 140 168 189 209 247 263 283 279 245 213 199 203 217 227

GFSNGP_con_3kmhel_189.txt.gz
Helicity
-28 -58 -40 -222 -87 71 86 82 142 73 144 113 -92 -177 -117 -89 -46 -18 26 40 25 33 35 59 70 64 65 103 178 221 241 257 335 294 279 503 394 386 397 330 312 311 324 298
160 111 39 -20 -35 16 -10 114 257 166 93 123 -58 -68 -48 -27 7 53 107 125 141 151 99 52 49 94 140 150 191 235 210 268 367 343 501 467 418 455 449 409 375 315 300 309
123 111 117 143 77 206 220 178 127 180 119 25 -6 -88 -70 -9 76 135 159 174 173 155 107 94 83 80 88 122 157 190 233 235 241 343 382 470 513 559 539 503 392 340 319 255
-87 -29 186 140 126 49 165 132 162 150 130 64 76 103 121 137 143 153 151 133 123 110 113 94 64 36 22 70 131 160 190 288 354 339 355 397 469 466 579 550 514 397 423 322
-46 -81 22 6 31 56 70 35 60 31 119 163 195 170 160 149 135 113 112 104 99 85 79 81 72 67 54 58 58 85 150 256 316 398 432 482 547 610 647 674 662 540 388 382
83 44 -18 99 215 121 74 92 126 59 123 136 113 98 108 60 76 61 53 42 47 67 78 77 78 76 72 80 95 116 109 194 282 333 402 459 562 687 705 717 771 696 554 371
45 61 24 94 197 167 86 129 165 120 96 98 105 107 89 64 55 44 51 64 42 56 84 98 117 119 120 107 95 125 191 272 277 298 361 426 547 667 812 848 855 635 441 338
22 3 30 152 199 237 256 218 156 116 105 105 103 79 74 84 106 94 80 52 47 68 86 84 89 97 104 95 107 101 152 240 278 331 374 438 530 642 827 891 663 466 385 286
80 104 59 132 338 369 359 281 123 108 96 66 67 87 104 101 49 25 27 28 24 51 74 88 65 41 36 62 129 180 232 256 299 330 381 451 541 636 650 517 469 467 372 259
23 -38 39 37 75 142 160 159 64 45 38 58 86 86 92 62 31 31 32 30 22 18 76 87 36 21 18 6 79 185 234 270 325 385 371 398 421 429 387 416 448 399 260 219
56 12 -56 -11 7 21 36 77 42 44 66 71 66 51 64 46 46 35 51 -22 -26 -29 -45 -26 -16 -17 -7 24 72 125 172 179 234 282 312 297 248 276 297 307 334 279 203 140
-20 -3 10 22 12 13 47 18 61 37 64 68 52 42 54 50 33 21 22 1 -8 -11 -0 14 9 13 20 40 69 88 105 154 164 210 234 237 275 260 187 202 176 155 136 112
-7 4 -6 20 20 24 28 36 75 151 105 85 61 53 44 44 25 16 31 20 19 -1 -1 33 51 57 56 51 70 76 73 78 108 135 145 138 132 144 118 101 80 35 53 110
43 38 58 40 45 75 51 47 35 118 120 88 48 39 28 55 57 52 41 22 19 17 19 17 60 80 74 68 62 62 67 92 73 52 84 120 113 87 109 130 112 95 105 130
46 61 75 72 39 22 27 48 25 67 155 56 64 58 52 63 68 49 39 34 29 43 43 58 66 85 101 100 101 83 55 55 71 78 85 103 112 120 137 146 146 160 160 134
69 79 101 43 33 38 54 28 17 44 23 41 62 67 68 69 55 39 29 25 15 18 16 24 61 71 46 85 104 125 115 89 92 116 133 132 144 165 176 174 196 213 194 171
47 80 99 55 17 72 80 23 35 47 64 66 68 52 57 57 47 46 46 38 24 8 4 20 41 68 70 99 114 114 117 140 123 85 149 148 139 147 180 194 193 197 177 180
12 18 44 86 98 94 73 64 70 90 116 74 71 62 62 63 44 39 30 26 25 27 47 65 55 73 97 84 78 100 161 173 165 168 179 182 184 160 182 171 173 184 178 187
8 23 35 39 68 51 52 87 161 158 105 95 79 68 53 37 27 21 18 15 22 20 54 76 80 79 93 109 88 102 112 157 173 188 181 195 193 207 193 168 179 192 208 223
62 60 36 23 44 35 100 173 160 97 83 81 69 58 41 34 31 24 21 14 13 37 64 80 87 98 111 100 92 100 113 148 162 194 204 218 226 205 213 200 195 207 215 211
40 46 35 54 61 80 138 162 110 86 59 54 48 50 42 39 38 29 36 27 36 41 61 66 90 94 95 86 64 67 111 137 159 188 189 192 208 230 227 229 232 210 234 223
-18 -10 11 45 76 103 139 147 86 75 79 48 26 41 34 32 32 38 17 34 42 53 68 72 76 73 60 46 42 46 75 98 111 147 170 171 182 222 231 238 235 235 214 229
-19 -26 -40 2 104 181 124 93 92 67 37 10 17 30 26 27 33 44 51 65 61 71 71 61 60 61 57 38 36 55 58 57 61 131 110 160 133 167 188 239 211 213 227 207
-4 9 -2 -0 10 8 -7 -7 9 12 21 25 24 29 40 50 46 44 56 65 71 69 54 51 59 50 29 33 38 44 42 43 36 75 132 123 132 151 159 181 179 168 181 176
18 27 29 34 38 36 35 32 26 25 31 34 22 20 27 35 46 59 73 65 61 58 50 44 47 36 42 42 35 37 47 47 50 79 91 78 79 96 98 115 131 134 152 181
21 25 29 18 26 32 32 31 27 32 30 40 49 45 54 53 49 55 56 58 47 47 40 37 35 40 52 55 53 52 56 51 52 63 90 81 72 84 112 135 138 145 165 184
15 10 32 46 43 40 30 29 30 26 44 65 55 32 49 48 51 53 45 34 35 37 31 33 33 42 43 49 58 62 65 73 82 84 92 96 102 112 139 154 163 184 194 221

GFSNGP_con_3kmhel_192.txt.gz
Helicity
-73 46 68 254 110 -75 -78 1 -57 215 148 91 289 395 348 160 151 162 44 12 3 -3 20 36 47 60 44 37 47 68 117 97 208 226 286 346 278 261 304 274 280 287 279 291
-72 -94 -148 -18 121 188 6 -45 -87 -116 -18 64 156 -20 -8 -37 -27 -28 -49 -1 55 72 56 39 33 40 64 81 72 81 83 89 105 181 253 280 342 289 314 358 407 464 384 326
-163 -102 -67 -104 -22 107 94 -13 8 -85 114 77 47 -11 -52 2 -12 -8 49 71 91 100 95 76 43 41 42 26 51 68 52 83 181 225 283 294 278 364 392 386 394 419 470 372
-8 -40 -40 -39 -47 -36 7 81 95 104 12 44 -57 -7 18 2 52 88 104 106 118 116 111 103 95 76 65 62 58 75 63 98 165 170 230 301 334 217 324 443 533 551 551 393
77 25 12 -36 -71 -6 -1 73 -1 23 92 121 107 151 152 135 125 129 124 114 118 98 80 73 84 76 63 58 65 82 77 91 117 159 235 316 330 387 418 448 515 538 564 492
83 65 13 106 145 151 99 92 102 44 54 37 72 90 105 129 161 142 117 102 92 69 67 79 96 91 91 96 92 87 97 106 117 135 225 285 319 369 415 467 574 673 659 622
130 67 81 142 120 115 75 160 144 80 82 79 60 127 149 148 131 116 87 51 54 73 100 96 79 74 80 82 93 87 83 106 151 164 220 286 326 370 435 488 606 719 779 691
80 64 147 217 135 119 175 173 188 135 112 131 145 138 128 106 95 68 57 58 64 81 91 81 77 72 72 80 117 134 140 142 136 202 258 291 338 406 424 513 585 623 665 708
37 69 18 14 155 314 351 255 254 193 154 120 99 93 84 75 72 82 63 64 56 49 64 76 88 90 72 83 69 79 123 214 259 282 292 284 307 327 367 417 473 527 590 544
10 4 3 21 0 131 350 409 197 200 108 54 54 91 88 80 57 48 51 55 52 63 74 89 61 35 34 17 34 47 61 111 203 248 225 254 293 327 360 377 407 429 449 526
-66 -19 16 -31 3 23 150 276 121 66 104 79 56 53 42 54 61 67 75 63 37 27 1 -7 10 25 18 13 22 7 17 62 125 148 153 185 207 251 244 235 244 361 414 484
-31 -23 -16 40 15 50 75 79 87 108 74 76 46 25 33 58 63 59 58 22 11 8 15 23 28 18 25 33 38 45 40 28 57 111 113 110 170 281 273 239 249 277 316 381
-44 -23 -19 21 28 34 51 59 57 86 78 68 61 24 22 42 44 56 46 31 24 12 7 2 5 3 26 41 47 53 64 51 44 56 83 95 135 167 196 136 153 212 253 267
-35 -9 -4 -2 34 31 44 49 51 61 91 67 59 36 37 49 55 73 59 55 55 37 15 6 3 -11 11 19 32 49 63 71 50 33 42 54 73 65 88 142 136 103 111 196
19 30 19 27 39 35 55 52 51 45 39 119 73 76 42 47 72 71 60 57 54 43 47 32 21 17 14 38 36 56 61 55 59 55 30 39 42 51 50 54 53 61 68 54
-25 53 55 24 33 40 44 51 39 41 39 164 125 114 101 81 74 61 57 57 29 34 36 22 32 31 20 38 40 57 54 86 69 71 74 50 58 77 66 63 90 124 119 129
7 15 43 43 27 21 49 62 48 61 42 93 53 71 87 78 66 52 40 30 31 22 25 23 39 36 48 62 84 68 53 69 75 96 90 65 76 84 100 132 144 145 150 149
3 -5 32 56 42 41 86 83 67 64 62 68 76 106 102 80 70 59 45 33 19 14 34 40 36 32 41 65 74 90 100 88 74 79 96 105 84 76 128 133 138 155 158 155
18 21 17 19 29 41 62 80 72 105 140 144 111 96 86 74 61 49 32 20 23 24 40 39 37 22 42 84 113 101 118 111 86 78 105 91 112 97 91 142 176 188 198 198
19 -9 -21 9 -2 4 58 65 103 167 157 144 89 81 81 74 61 46 35 34 48 52 38 36 42 35 61 103 119 123 124 122 113 104 124 140 138 144 126 118 172 199 213 222
7 15 16 12 5 56 113 148 164 173 75 36 73 63 54 50 44 42 30 35 48 52 43 29 21 31 55 73 89 90 101 109 104 116 135 140 149 147 151 138 151 179 201 200
35 -11 -13 7 29 48 109 198 159 110 108 100 61 23 40 43 35 37 29 41 43 54 46 34 39 50 49 49 69 71 73 75 85 102 123 141 138 121 127 137 146 161 179 207
1 -12 -14 1 40 63 54 63 137 169 133 53 34 26 34 43 40 54 53 51 49 57 47 41 41 37 46 58 66 69 62 60 75 95 110 109 127 118 136 135 125 148 174 202
-1 4 9 9 5 4 24 59 53 39 33 16 -10 -6 4 25 42 53 67 69 67 59 48 44 48 54 54 58 69 62 58 55 51 75 79 99 153 86 -17 -9 103 134 174 196
8 4 17 27 28 32 33 28 23 18 15 29 26 21 29 52 66 86 84 61 43 34 45 52 45 44 47 67 69 60 49 49 54 82 74 54 72 4 69 83 89 127 130 130
35 23 15 21 26 41 36 27 25 35 27 23 23 38 51 64 57 42 47 45 40 50 45 42 43 42 54 62 59 54 47 50 57 64 51 49 50 62 57 62 64 74 77 96
44 31 25 17 15 18 28 36 41 23 11 10 19 45 52 38 52 65 50 37 35 31 30 35 43 54 50 45 50 54 54 55 64 59 61 61 63 71 68 74 82 105 142 152